Location: Banff
(51.1667°N, 115.5667°W)
Time: 10:33:24
(UTC+00:00)

Explorer 7 - Pass Details

Date: 27 November 2020
Orbit: 484 x 678 km, 50.3° (Epoch: 19 January)

Event Time Altitude Azimuth Distance (km) Brightness Sun altitude
Exits shadow 14:11:19 13° 275° (W) 1,638 8.6 -10.3°
Maximum altitude 14:14:56 64° 195° (SSW) 594 7.0 -9.7°
Drops below altitude 10° 14:18:49 10° 114° (ESE) 1,735 11.1 -9.2°
Sets 14:20:58 0° 111° (ESE) 2,596 12.8 -8.9°
